CXA8153 ZUCK-ZBAA

Flight info

Callsign CXA8153
Flight time N/A
Altitude 35100
Route OVNUL6Y OVNUL W677 IGIRO W4 LIMGI/K0856S1130 W4 VADMO W56 LEBUN/K0859S1100 W56 NUDKU/K0859S1130 W56 DUGEB DUGEB4A
Aircraft B738/M-SDE2E3FGHIRWXY/LB1

Departure

Time 2026-04-30 06:44
Airport Chongqing Jiangbei International Airport (ZUCK)

Arrival

Time N/A
Airport Beijing Capital International Airport (ZBAA)
Time Latitude Longitude Altitude Speed Heading
2026-04-30 06:04 29.73138 106.65696 1345 ft 0 kts 107°
2026-04-30 06:29 29.73139 106.65693 1345 ft 2 kts 107°
2026-04-30 06:29 29.73144 106.65673 1347 ft 3 kts 107°
2026-04-30 06:30 29.73150 106.65652 1347 ft 3 kts 107°
2026-04-30 06:30 29.73153 106.65631 1347 ft 3 kts 77°
2026-04-30 06:30 29.73145 106.65613 1347 ft 3 kts 37°
2026-04-30 06:30 29.73128 106.65601 1347 ft 3 kts 28°
2026-04-30 06:31 29.73119 106.65596 1347 ft 0 kts 32°
2026-04-30 06:34 29.73139 106.65610 1350 ft 9 kts 30°
2026-04-30 06:34 29.73225 106.65632 1347 ft 14 kts 356°
2026-04-30 06:34 29.73310 106.65583 1351 ft 14 kts 321°
2026-04-30 06:34 29.73380 106.65515 1350 ft 13 kts 320°
2026-04-30 06:35 29.73462 106.65495 1351 ft 13 kts 16°
2026-04-30 06:35 29.73544 106.65530 1351 ft 12 kts 22°
2026-04-30 06:35 29.73621 106.65572 1350 ft 12 kts 27°
2026-04-30 06:35 29.73695 106.65615 1352 ft 12 kts 26°
2026-04-30 06:36 29.73761 106.65666 1347 ft 12 kts 55°
2026-04-30 06:36 29.73752 106.65753 1345 ft 11 kts 105°
2026-04-30 06:36 29.73729 106.65841 1344 ft 12 kts 110°
2026-04-30 06:36 29.73705 106.65934 1344 ft 12 kts 104°
2026-04-30 06:37 29.73679 106.66034 1336 ft 14 kts 107°
2026-04-30 06:37 29.73651 106.66144 1333 ft 15 kts 107°
2026-04-30 06:37 29.73620 106.66262 1330 ft 16 kts 107°
2026-04-30 06:37 29.73588 106.66385 1330 ft 16 kts 103°
2026-04-30 06:38 29.73556 106.66508 1326 ft 16 kts 106°
2026-04-30 06:38 29.73481 106.66576 1323 ft 15 kts 190°
2026-04-30 06:38 29.73395 106.66514 1324 ft 14 kts 206°
2026-04-30 06:38 29.73300 106.66482 1325 ft 14 kts 197°
2026-04-30 06:39 29.73215 106.66492 1325 ft 13 kts 122°
2026-04-30 06:39 29.73253 106.66568 1324 ft 13 kts 15°
2026-04-30 06:39 29.73338 106.66596 1326 ft 13 kts 16°
2026-04-30 06:39 29.73440 106.66631 1322 ft 20 kts 17°
2026-04-30 06:40 29.73576 106.66678 1321 ft 20 kts 17°
2026-04-30 06:40 29.73709 106.66724 1320 ft 20 kts 17°
2026-04-30 06:40 29.73838 106.66768 1319 ft 19 kts 16°
2026-04-30 06:40 29.73963 106.66810 1318 ft 18 kts 16°
2026-04-30 06:41 29.74083 106.66851 1317 ft 17 kts 17°
2026-04-30 06:41 29.74196 106.66889 1317 ft 16 kts 16°
2026-04-30 06:41 29.74313 106.66932 1316 ft 18 kts 18°
2026-04-30 06:41 29.74431 106.66974 1315 ft 17 kts 17°
2026-04-30 06:42 29.74548 106.67017 1313 ft 18 kts 17°
2026-04-30 06:42 29.74666 106.67057 1312 ft 17 kts 14°
2026-04-30 06:42 29.74742 106.67141 1311 ft 17 kts 98°
2026-04-30 06:42 29.74711 106.67243 1310 ft 8 kts 106°
2026-04-30 06:43 29.74686 106.67284 1311 ft 6 kts 154°
2026-04-30 06:43 29.74647 106.67272 1311 ft 6 kts 224°
2026-04-30 06:43 29.74569 106.67226 1311 ft 30 kts 198°
2026-04-30 06:43 29.74131 106.67078 1315 ft 101 kts 196°
2026-04-30 06:44 29.73247 106.66781 1325 ft 162 kts 194°
2026-04-30 06:44 29.72013 106.66348 1413 ft 208 kts 196°
2026-04-30 06:44 29.70690 106.65931 2706 ft 183 kts 187°
2026-04-30 06:44 29.69463 106.65961 4057 ft 174 kts 174°
2026-04-30 06:45 29.69027 106.65989 4367 ft 181 kts 177°
2026-04-30 06:45 29.67945 106.65989 4775 ft 202 kts 180°
2026-04-30 06:45 29.66424 106.65934 5032 ft 234 kts 185°
2026-04-30 06:46 29.64842 106.65224 5354 ft 262 kts 220°
2026-04-30 06:46 29.63835 106.63486 5859 ft 274 kts 248°
2026-04-30 06:46 29.63681 106.61290 5693 ft 280 kts 277°
2026-04-30 06:46 29.64077 106.59129 5538 ft 275 kts 284°
2026-04-30 06:47 29.65006 106.57168 5067 ft 290 kts 313°
2026-04-30 06:47 29.66744 106.55978 4534 ft 301 kts 347°
2026-04-30 06:47 29.68877 106.56016 3795 ft 318 kts 18°
2026-04-30 06:47 29.70782 106.57075 4190 ft 289 kts 30°
2026-04-30 06:48 29.72512 106.58160 4267 ft 283 kts 30°
2026-04-30 06:48 29.74238 106.59307 4059 ft 288 kts 32°
2026-04-30 06:48 29.75965 106.60482 3978 ft 290 kts 32°
2026-04-30 06:48 29.77691 106.61640 4095 ft 283 kts 32°
2026-04-30 06:49 29.79358 106.62783 4250 ft 278 kts 33°
2026-04-30 06:49 29.80994 106.63941 4251 ft 275 kts 33°
2026-04-30 06:49 29.82647 106.65096 4057 ft 280 kts 32°
2026-04-30 06:49 29.84349 106.66225 3815 ft 284 kts 31°
2026-04-30 06:50 29.86049 106.67442 3498 ft 290 kts 40°
2026-04-30 06:50 29.87235 106.69251 3128 ft 287 kts 73°
2026-04-30 06:50 29.87226 106.71473 2337 ft 302 kts 121°
2026-04-30 06:50 29.85693 106.72960 2331 ft 283 kts 167°
2026-04-30 06:51 29.83912 106.72473 1943 ft 274 kts 209°
2026-04-30 06:51 29.82303 106.71449 2444 ft 254 kts 207°
2026-04-30 06:51 29.80819 106.70525 2513 ft 242 kts 207°
2026-04-30 06:51 29.79348 106.69583 1901 ft 244 kts 207°
2026-04-30 06:52 29.77917 106.68829 1769 ft 210 kts 199°
2026-04-30 06:52 29.76614 106.68328 1599 ft 186 kts 192°
2026-04-30 06:52 29.75450 106.67963 1444 ft 161 kts 198°
2026-04-30 06:52 29.74494 106.67589 1479 ft 121 kts 200°
2026-04-30 06:53 29.73753 106.67357 1345 ft 112 kts 191°
2026-04-30 06:53 29.73031 106.67117 1333 ft 96 kts 197°
2026-04-30 06:53 29.72635 106.66984 1336 ft 84 kts 197°
2026-04-30 06:53 29.72323 106.66882 1341 ft 9 kts 195°
2026-04-30 06:54 29.72268 106.66858 1338 ft 9 kts 205°
2026-04-30 06:54 29.72229 106.66839 1337 ft 9 kts 191°
2026-04-30 06:54 29.72193 106.66862 1337 ft 0 kts 126°